Date String (YYYY-MM-DD hh:mm:ss) UTC,Instrument flags,Ambient pressure (hPa),Sample flow (lpm),Bypass flow (lpm),Sample temperature (°C),Ambient temperature (°C),ASC tube jacket temperature (°C),LED temperature (°C),Box temperature (°C),Sample RH (%),Span deviation,Mass concentration (μg/m³),Mass concentration (μg/m³),Mass concentration (μg/m³)
DateTimeUTC,F1_M11,P_M11,Q1_M11,Q2_M11,T1_M11,T2_M11,T3_M11,T4_M11,T5_M11,U1_M11,ZSPAN_M11,X0_M11,X2_M11,X1_M11
2022-08-15 20:00:00,,0829.3,5.00,0.00,30.6,28.3,00.0,38.9,31.9,32.9,0000.0,0011.14,0005.03,0004.33
2022-08-15 20:01:00,,0829.3,5.00,0.00,30.7,28.4,00.0,38.9,32.0,32.5,0000.0,0010.71,0005.07,0004.30
2022-08-15 20:02:00,,0829.3,5.01,0.00,30.7,28.6,00.0,38.9,32.0,31.8,0000.0,0010.45,0005.02,0004.25
2022-08-15 20:03:00,,0829.2,5.00,0.00,30.8,28.6,00.0,39.0,32.0,32.0,0000.0,0010.35,0004.97,0004.18
2022-08-15 20:04:00,,0829.2,4.99,0.00,30.7,28.2,00.0,38.9,31.8,32.5,0000.0,0010.52,0004.94,0004.11
2022-08-15 20:05:00,,0829.3,5.00,0.00,30.7,27.6,00.0,38.9,31.7,33.0,0000.0,0011.19,0004.87,0004.06
2022-08-15 20:06:00,,0829.2,5.00,0.00,30.6,27.4,00.0,38.9,31.6,33.1,0000.0,0010.98,0004.82,0004.02
2022-08-15 20:07:00,,0829.2,5.00,0.00,30.5,27.4,00.0,38.9,31.5,33.5,0000.0,0010.97,0004.78,0004.00
2022-08-15 20:08:00,,0829.2,5.01,0.00,30.4,27.6,00.0,38.9,31.6,34.0,0000.0,0011.33,0004.76,0003.98
2022-08-15 20:09:00,,0829.3,4.99,0.00,30.4,27.7,00.0,38.9,31.6,34.5,0000.0,0011.93,0004.75,0003.96
2022-08-15 20:10:00,,0829.3,5.01,0.00,30.4,27.9,00.0,38.9,31.7,34.7,0000.0,0012.05,0004.75,0003.94
2022-08-15 20:11:00,,0829.3,4.99,0.00,30.4,28.1,00.0,38.9,31.7,34.2,0000.0,0012.06,0004.76,0003.93
2022-08-15 20:12:00,,0829.2,5.00,0.00,30.4,28.3,00.0,38.9,31.8,33.6,0000.0,0011.85,0004.74,0003.94
2022-08-15 20:13:00,,0829.2,4.99,0.00,30.4,28.4,00.0,38.9,31.9,32.9,0000.0,0011.82,0004.76,0003.96
2022-08-15 20:14:00,,0829.3,5.01,0.00,30.4,28.6,00.0,38.9,31.9,33.4,0000.0,0011.47,0004.77,0003.98
2022-08-15 20:15:00,,0829.2,5.00,0.00,30.4,28.2,00.0,38.9,31.7,33.9,0000.0,0011.23,0004.78,0004.01
2022-08-15 20:16:00,,0829.3,5.01,0.00,30.3,27.6,00.0,38.8,31.5,34.8,0000.0,0011.94,0004.85,0004.07
2022-08-15 20:17:00,,0829.3,5.00,0.00,30.3,27.3,00.0,38.8,31.5,35.2,0000.0,0011.93,0004.91,0004.14
2022-08-15 20:18:00,,0829.3,5.01,0.00,30.4,27.3,00.0,38.8,31.6,35.3,0000.0,0011.87,0005.02,0004.24
2022-08-15 20:19:00,,0829.3,5.00,0.00,30.7,27.4,00.0,38.8,31.7,34.5,0000.0,0011.59,0005.12,0004.31
2022-08-15 20:20:00,,0829.3,4.98,0.00,30.9,27.6,00.0,38.8,31.8,34.1,0000.0,0011.06,0005.18,0004.37
2022-08-15 20:21:00,,0829.2,5.01,0.00,31.0,27.8,00.0,38.8,31.8,34.0,0000.0,0010.76,0005.23,0004.42
2022-08-15 20:22:00,,0829.2,4.99,0.00,31.1,28.0,00.0,38.9,31.9,34.7,0000.0,0010.92,0005.33,0004.49
2022-08-15 20:23:00,,0829.2,5.00,0.00,31.1,28.1,00.0,38.9,31.9,34.5,0000.0,0011.12,0005.43,0004.57
2022-08-15 20:24:00,,0829.2,4.99,0.00,31.1,28.3,00.0,39.0,32.0,34.4,0000.0,0011.22,0005.52,0004.65
2022-08-15 20:25:00,,0829.2,5.01,0.00,31.1,28.5,00.0,39.1,32.0,34.2,0000.0,0011.38,0005.58,0004.72
2022-08-15 20:26:00,,0829.2,5.00,0.00,31.1,28.6,00.0,39.1,32.0,33.6,0000.0,0012.09,0005.63,0004.77
2022-08-15 20:27:00,,0829.3,5.00,0.00,31.1,28.6,00.0,39.2,32.0,33.5,0000.0,0012.24,0005.63,0004.78
2022-08-15 20:28:00,,0829.2,5.01,0.00,31.1,28.1,00.0,39.2,31.9,33.2,0000.0,0011.98,0005.58,0004.74
2022-08-15 20:29:00,,0829.3,4.99,0.00,31.0,27.5,00.0,39.1,31.7,32.3,0000.0,0011.82,0005.45,0004.65
2022-08-15 20:30:00,,0829.2,5.02,0.00,30.9,27.3,00.0,39.1,31.6,32.3,0000.0,0011.61,0005.32,0004.57
2022-08-15 20:31:00,,0829.2,5.00,0.00,30.7,27.3,00.0,39.1,31.5,32.7,0000.0,0011.23,0005.19,0004.50
2022-08-15 20:32:00,,0829.3,5.01,0.00,30.7,27.5,00.0,39.1,31.6,32.7,0000.0,0011.04,0005.07,0004.44
2022-08-15 20:33:00,,0829.4,4.99,0.00,30.6,27.6,00.0,39.1,31.7,32.7,0000.0,0010.68,0004.90,0004.35
2022-08-15 20:34:00,,0829.4,5.00,0.00,30.6,27.8,00.0,39.1,31.7,33.1,0000.0,0010.36,0004.75,0004.25
2022-08-15 20:35:00,,0829.3,5.00,0.00,30.6,28.0,00.0,39.1,31.8,32.8,0000.0,0010.18,0004.63,0004.16
2022-08-15 20:36:00,,0829.3,4.99,0.00,30.6,28.2,00.0,39.1,31.8,32.8,0000.0,0010.56,0004.57,0004.10
2022-08-15 20:37:00,,0829.3,5.00,0.00,30.6,28.3,00.0,39.1,31.9,33.3,0000.0,0010.04,0004.50,0004.03
2022-08-15 20:38:00,,0829.3,5.00,0.00,30.6,28.5,00.0,39.1,31.9,33.8,0000.0,0008.25,0004.45,0004.00
2022-08-15 20:39:00,,0829.3,5.00,0.00,30.6,28.6,00.0,39.1,32.0,33.8,0000.0,0008.03,0004.42,0003.96
2022-08-15 20:40:00,,0829.2,5.00,0.00,30.6,28.7,00.0,39.1,32.0,33.4,0000.0,0008.13,0004.45,0003.94
2022-08-15 20:41:00,,0829.3,5.00,0.00,30.6,28.7,00.0,39.1,32.0,33.8,0000.0,0008.75,0004.49,0003.94
2022-08-15 20:42:00,,0829.2,5.00,0.00,30.5,28.1,00.0,39.0,31.8,34.1,0000.0,0009.03,0004.54,0003.95
2022-08-15 20:43:00,,0829.2,5.00,0.00,30.4,27.4,00.0,39.0,31.6,34.2,0000.0,0009.13,0004.59,0003.96
2022-08-15 20:44:00,,0829.3,5.00,0.00,30.3,27.1,00.0,38.9,31.4,34.4,0000.0,0009.22,0004.63,0003.97
2022-08-15 20:45:00,,0829.4,5.01,0.00,30.2,27.2,00.0,38.9,31.4,34.7,0000.0,0009.26,0004.65,0003.98
2022-08-15 20:46:00,,0829.3,4.99,0.00,30.1,27.3,00.0,38.9,31.4,34.7,0000.0,0009.75,0004.63,0003.94
2022-08-15 20:47:00,,0829.4,5.01,0.00,30.1,27.5,00.0,38.8,31.5,34.4,0000.0,0009.28,0004.58,0003.90
2022-08-15 20:48:00,,0829.4,4.99,0.00,30.1,27.7,00.0,38.8,31.6,34.4,0000.0,0009.75,0004.53,0003.85
2022-08-15 20:49:00,,0829.5,4.99,0.00,30.1,27.9,00.0,38.8,31.6,34.1,0000.0,0009.90,0004.46,0003.78
2022-08-15 20:50:00,,0829.4,5.02,0.00,30.1,28.1,00.0,38.8,31.7,34.3,0000.0,0009.89,0004.42,0003.72
2022-08-15 20:51:00,,0829.4,5.00,0.00,30.1,28.2,00.0,38.8,31.7,34.0,0000.0,0009.73,0004.32,0003.68
2022-08-15 20:52:00,,0829.5,4.99,0.00,30.1,28.4,00.0,38.8,31.8,33.9,0000.0,0009.04,0004.23,0003.63
2022-08-15 20:53:00,,0829.5,5.00,0.00,30.1,28.5,00.0,38.8,31.8,34.6,0000.0,0008.80,0004.15,0003.58
2022-08-15 20:54:00,,0829.5,5.00,0.00,30.2,28.6,00.0,38.8,31.8,34.2,0000.0,0008.68,0004.07,0003.52
2022-08-15 20:55:00,,0829.5,5.01,0.00,30.2,28.7,00.0,38.8,31.9,34.3,0000.0,0008.78,0004.00,0003.46
2022-08-15 20:56:00,,0829.5,4.98,0.00,30.2,28.3,00.0,38.8,31.8,34.8,0000.0,0008.68,0003.92,0003.41
2022-08-15 20:57:00,,0829.5,5.01,0.00,30.1,27.6,00.0,38.7,31.5,35.1,0000.0,0008.31,0003.90,0003.38
2022-08-15 20:58:00,,0829.4,5.01,0.00,30.2,27.2,00.0,38.7,31.5,35.0,0000.0,0008.12,0003.88,0003.36
2022-08-15 20:59:00,,0829.5,4.98,0.00,30.3,27.2,00.0,38.7,31.5,34.4,0000.0,0007.74,0003.86,0003.35
